Find Skylink-1

NORAD ID: 62693 Int'l Des: NNA 2025-009 Owner: HELLO Country: TR decayed
LEOCIRCULARRETROGRADE

Historical Track — 8. Mai 2026

3D-Globus wird geladen...

Über Skylink-1

Beschreibung wird geladen...

Höhenverlauf

Loading altitude history...

Zweizeiliger Elementsatz

1 62693U 25009CN 26125.99287395 .02225938 53566-2 22725-2 0 9998
2 62693 97.3933 219.8957 0014769 269.6542 90.3050 16.11961825130836
Epoch: 5. Mai 2026 • Age: 148 hours

Aktueller Status

Position data unavailable
Startdatum 14. Jan. 2025
Alter 1.3 years
Verglühungsdatum 8. Mai 2026
Typ other

Technische Details

Klassifizierung Payload
Masse 0.75 kg
Trockenmasse 0.75 kg
Gesamtmasse 0.75 kg
Länge 0.15 m
Durchmesser 0.05 m
Spannweite 0.35 m
Form Box+ 2 pan
Hersteller HELLO
Bus-Typ PocketQube 3P
Phasenstatus In Orbit
Besitzer/Staat HELLO/TR

Most Searched